RH
14 13 13 12 11 10 10 9 9 8 8 8 7 7 7 8 9 8 8 8 8 8 13 17 17 17 18 19 19 19 18 16 16 16 16 16 16 14 14 15 14 13 14 13 11 12 12 11 11 10 11 12 15 21 23 22 22 19 16 17 20 20 19 20 18 13 12 15 18 23 26 25 23 23 25 26 28 31 32 33 33 33 34 35 39 40 26
13 12 12 10 9 8 8 7 7 7 7 7 7 7 7 7 8 7 7 7 7 9 12 14 15 16 16 16 15 16 16 16 15 15 15 16 15 14 13 14 12 13 15 13 10 11 10 9 10 11 12 14 18 22 22 22 23 20 18 20 20 19 18 20 20 17 16 16 16 19 23 24 22 22 27 30 33 38 38 35 36 37 34 33 38 39 28
11 10 10 9 8 7 7 6 6 6 6 6 6 6 6 7 7 6 6 6 6 9 10 11 15 16 15 14 13 12 13 14 14 14 15 15 15 13 12 13 13 14 16 13 12 12 10 8 11 13 13 14 20 23 23 24 25 24 24 25 22 19 18 19 21 22 23 23 22 22 22 22 21 23 29 34 36 39 38 34 36 39 35 33 36 36 27
8 8 8 8 7 6 6 6 5 5 5 5 5 5 5 6 7 7 7 6 6 8 8 8 11 13 14 13 11 10 11 11 12 13 13 14 15 14 13 14 13 13 13 12 12 14 13 12 13 15 14 13 18 24 25 26 26 26 27 26 23 22 21 20 21 23 26 28 26 25 25 25 24 27 32 36 38 39 37 36 37 36 35 35 32 31 30
6 7 7 7 6 6 5 5 5 5 5 4 5 4 4 6 8 9 9 6 6 8 8 8 9 10 11 11 10 10 10 9 11 12 12 13 15 14 14 14 13 12 11 11 11 13 14 14 15 16 17 16 18 22 25 27 26 27 29 28 25 23 22 23 24 24 25 27 26 25 27 28 28 31 34 36 40 42 39 37 36 34 39 39 30 28 32
6 6 6 6 6 5 5 5 4 4 4 4 4 4 5 7 8 8 8 7 9 9 8 9 10 10 11 13 12 10 11 10 10 11 12 13 14 12 12 12 14 14 13 12 11 12 13 14 16 16 17 19 18 18 24 27 26 26 28 28 26 22 22 25 27 24 23 25 25 25 26 27 30 36 39 39 43 46 44 40 38 38 42 39 31 30 33
5 5 5 6 5 5 5 5 4 4 4 3 3 3 4 5 6 6 6 7 10 10 9 9 10 10 11 13 12 11 11 11 11 13 12 11 13 12 11 12 15 17 17 14 12 12 12 15 18 17 16 18 16 15 19 23 24 24 25 26 25 22 22 28 31 26 21 21 23 23 25 26 27 32 38 41 43 46 44 41 40 43 43 40 38 39 39
5 4 5 5 5 5 4 4 4 3 3 2 2 3 3 4 4 5 5 6 8 8 8 8 9 10 10 11 11 11 11 11 13 15 13 11 12 13 12 13 17 21 20 16 14 14 13 14 17 17 17 18 17 16 16 17 21 24 23 24 23 20 23 30 31 25 20 20 21 21 23 24 24 28 35 38 37 37 37 38 41 46 50 48 46 47 45
4 4 4 3 3 4 3 3 3 3 3 3 2 3 3 3 3 3 4 6 7 7 7 8 9 10 10 10 11 11 12 13 15 15 14 13 14 14 15 15 17 21 20 17 16 16 15 16 17 18 19 18 17 17 16 17 20 21 22 23 21 19 21 25 26 23 19 18 19 19 19 20 23 29 32 31 29 31 32 34 37 43 47 46 45 46 45
4 3 3 2 2 3 3 3 3 3 3 3 3 3 3 3 4 3 4 6 7 7 7 9 10 10 10 12 13 12 13 16 15 13 12 15 15 16 18 18 17 17 17 16 16 17 18 19 20 21 22 22 21 20 20 20 20 20 22 22 21 20 20 19 23 24 18 16 18 19 18 19 22 25 26 25 27 29 26 26 31 37 42 45 46 47 48
3 3 3 3 2 2 3 3 3 3 3 3 3 3 3 4 4 3 4 8 9 8 9 10 10 10 11 13 13 12 13 15 14 11 11 14 15 16 18 18 17 16 15 15 16 17 19 20 21 23 25 25 24 23 23 23 22 22 22 22 23 23 20 19 23 23 20 19 19 19 19 20 22 23 24 26 29 29 25 25 29 35 38 41 43 43 43
3 3 3 3 3 3 3 3 3 3 4 4 4 4 4 4 4 4 6 9 10 10 11 12 11 11 12 12 13 13 13 14 14 14 14 14 15 16 18 18 17 16 15 16 16 18 19 18 21 24 25 25 25 24 24 23 23 24 22 21 23 23 21 22 24 25 24 23 22 23 22 20 22 24 26 29 31 30 28 24 23 28 31 32 32 31 30
3 3 3 3 3 3 3 3 3 3 4 4 3 4 4 4 5 5 6 10 12 11 11 12 11 11 12 12 12 12 12 13 14 15 16 16 15 16 17 18 17 16 16 17 18 18 17 16 18 20 22 23 23 24 25 26 26 25 24 24 25 25 25 27 27 27 26 23 24 27 23 18 20 23 26 29 29 28 27 23 21 25 29 29 28 28 28
3 3 4 4 4 4 3 3 3 3 3 4 4 5 5 5 6 6 6 9 12 11 11 11 11 10 11 11 11 11 11 12 13 14 15 15 16 16 17 17 18 18 18 18 17 16 16 16 16 16 16 18 19 19 22 26 28 28 28 29 28 28 28 28 27 28 27 25 25 25 22 21 20 21 25 27 24 24 28 28 24 22 25 27 27 28 30
4 4 4 4 4 4 4 3 4 4 4 5 5 5 5 6 6 6 6 8 11 12 11 10 10 10 11 11 11 11 12 13 14 14 14 15 15 16 17 18 18 19 19 18 17 17 16 16 17 16 15 16 17 16 16 20 24 29 31 30 29 28 28 27 28 28 27 28 29 28 27 25 20 19 23 23 22 25 30 31 25 20 22 27 27 28 31
4 4 4 4 4 4 3 3 4 4 5 5 5 5 6 6 6 6 5 5 8 11 11 10 9 10 11 11 12 12 13 15 16 16 16 15 14 15 17 18 18 19 19 18 18 18 17 17 17 17 17 17 18 17 15 13 17 24 29 28 26 27 28 28 29 29 29 30 31 32 31 24 17 17 20 20 23 27 31 32 26 18 21 27 30 30 31
4 4 4 4 4 4 4 4 4 5 5 5 5 5 5 5 5 6 6 6 9 12 12 10 10 11 11 12 13 14 14 16 16 16 16 16 15 16 18 18 18 19 18 18 19 19 18 18 17 16 18 18 18 18 17 15 14 17 22 25 26 27 28 29 30 31 31 32 32 31 27 20 15 15 17 21 25 28 32 34 27 17 19 27 33 34 32
5 5 4 5 5 5 5 5 5 5 5 5 5 4 4 5 6 7 7 7 10 13 13 11 12 12 13 14 15 15 16 17 17 16 17 17 16 18 20 19 18 19 18 19 20 18 17 17 17 16 17 17 19 20 19 18 18 16 16 19 23 26 29 30 30 30 32 34 34 30 24 17 14 15 18 23 26 27 30 31 26 22 25 30 34 36 35
5 5 5 5 5 5 6 6 5 5 5 5 5 4 4 5 6 7 7 8 10 14 15 14 15 16 16 17 17 18 19 19 18 17 19 20 19 20 21 20 19 19 18 18 19 18 17 17 18 19 18 17 19 20 19 19 18 17 17 20 23 26 29 29 30 32 33 34 35 33 25 17 14 16 19 24 27 29 29 27 26 29 34 34 34 35 35
5 5 5 5 5 5 6 5 5 4 4 5 5 5 5 5 6 7 8 9 11 16 18 18 18 19 20 20 20 20 21 21 21 20 21 22 21 22 22 21 20 19 18 18 19 19 18 17 18 20 20 18 19 20 20 19 17 17 20 22 24 26 26 26 28 31 32 34 37 35 26 17 16 19 23 26 29 31 30 29 30 34 37 37 35 35 36
5 5 5 5 5 5 5 4 4 4 4 4 5 5 5 6 7 8 9 9 12 16 20 21 21 22 22 22 22 22 22 23 23 23 23 23 22 23 23 22 21 19 18 19 19 19 19 18 19 21 20 19 19 21 22 22 19 18 20 22 24 26 25 25 27 31 32 33 32 26 19 17 19 22 24 26 27 29 33 35 36 37 38 40 38 37 39
4 4 5 5 5 5 4 4 4 4 4 4 5 5 5 7 8 9 11 11 11 15 20 22 23 24 24 24 24 24 24 24 24 24 24 24 23 24 24 23 22 21 20 20 19 20 20 20 20 20 20 19 21 22 23 23 22 21 21 23 24 24 23 25 27 28 29 28 24 20 17 17 20 23 24 25 26 28 34 38 40 41 43 44 43 42 43
4 4 5 5 4 4 4 4 4 4 4 4 5 5 6 8 9 11 13 12 12 15 20 22 24 25 25 25 26 26 26 26 26 26 26 25 25 26 25 23 23 23 22 21 21 21 21 21 21 20 20 22 23 23 23 23 23 23 22 22 22 21 22 25 25 25 26 24 20 20 21 20 21 23 25 27 29 33 38 42 45 47 48 48 48 47 47
4 4 4 4 4 4 4 4 4 4 4 4 5 6 7 8 10 12 13 13 14 17 20 22 24 25 25 26 27 27 27 27 27 26 27 27 27 27 26 25 25 25 24 24 23 23 23 23 23 23 23 25 25 24 24 24 24 25 24 23 22 22 24 25 24 26 29 27 22 22 24 23 25 27 28 32 37 41 44 47 50 51 52 51 50 50 49
4 4 4 4 4 4 4 4 4 4 4 5 6 7 8 9 11 14 15 15 15 18 22 24 25 26 26 27 27 27 27 27 27 27 28 29 29 29 28 28 28 27 27 26 26 27 26 26 26 26 26 26 25 24 25 25 25 25 25 24 24 25 26 26 26 27 29 27 24 26 27 25 27 33 36 39 44 47 49 51 53 54 53 53 52 52 52
4 4 4 4 4 4 4 4 4 4 5 6 7 9 9 10 13 15 15 16 16 17 21 25 26 27 28 28 27 27 27 27 27 28 29 29 29 30 30 30 30 29 28 28 28 29 29 29 29 28 28 28 27 26 26 27 26 27 27 26 25 27 28 29 29 30 30 29 29 34 36 30 27 32 39 45 50 53 54 54 55 55 55 54 54 54 54
5 5 5 5 5 6 6 6 7 7 8 8 10 11 12 12 14 15 15 17 17 17 20 25 27 28 28 28 27 27 27 27 26 27 27 28 29 29 30 30 30 29 29 29 29 30 31 32 32 31 31 30 29 28 29 29 28 29 29 27 28 30 31 32 35 37 37 35 36 42 45 42 36 37 43 48 53 56 56 56 56 56 56 55 55 54 54
5 6 6 6 7 7 8 9 10 10 11 12 11 12 13 13 14 15 15 17 18 18 21 24 27 27 27 27 27 27 26 25 25 25 25 26 27 28 29 29 29 30 30 31 31 32 33 33 32 32 32 31 31 31 30 30 31 31 30 29 31 34 35 37 40 43 42 41 42 46 50 50 48 47 50 52 54 56 57 57 57 56 56 57 58 59 60
6 7 7 8 9 10 11 12 13 13 13 13 13 14 14 14 15 16 16 17 18 20 22 24 26 27 26 26 26 25 24 23 22 23 24 25 25 26 27 28 28 29 31 33 33 33 33 33 32 32 32 31 32 31 29 30 32 30 28 30 34 37 40 43 46 48 46 45 46 48 51 52 53 53 55 57 57 57 58 58 58 59 61 62 64 66 70
7 8 9 10 12 13 14 16 16 16 16 15 15 15 15 15 15 16 16 17 19 21 23 24 26 27 26 26 26 25 24 23 22 21 23 23 24 24 25 26 28 29 32 34 35 35 35 35 34 33 32 32 33 32 30 31 33 30 28 32 37 39 41 44 47 49 49 48 47 48 51 54 56 56 56 56 57 58 60 61 62 64 66 70 73 77 81
9 9 11 12 14 15 15 16 17 18 18 18 17 16 16 16 16 16 17 18 19 21 23 25 26 25 25 25 24 24 24 23 21 20 22 23 23 24 26 27 29 31 34 36 37 37 37 36 34 33 33 33 34 33 31 33 35 34 32 35 37 37 38 41 42 44 46 47 46 45 47 51 53 54 54 54 55 57 58 59 63 69 75 79 82 84 84
10 11 13 14 15 16 16 16 17 18 18 19 18 18 17 17 16 16 17 18 19 21 23 24 24 26 27 26 24 24 24 22 20 21 24 24 24 27 29 30 32 34 35 38 39 38 37 36 34 33 34 35 35 34 33 34 38 39 39 37 36 35 36 38 39 40 43 47 50 51 50 50 51 52 54 54 55 57 62 68 74 80 84 85 84 81 79
12 13 15 17 17 17 18 18 18 19 20 20 20 19 18 17 17 17 17 18 19 20 22 23 27 29 28 25 25 25 23 21 22 24 25 26 27 29 31 33 34 35 35 36 37 36 35 36 36 35 35 36 37 37 36 38 40 42 42 40 38 37 37 38 39 40 42 46 52 56 56 54 54 54 56 59 64 69 76 81 83 83 81 79 75 71 68
13 15 17 19 19 20 21 22 22 22 21 21 21 21 20 20 19 19 18 18 20 21 21 24 29 33 30 26 26 26 23 23 25 28 28 28 29 30 31 33 34 34 33 33 35 36 36 36 36 35 35 37 40 40 39 40 41 41 40 40 40 40 39 39 38 39 41 44 50 54 55 56 58 60 64 69 73 75 75 74 72 70 67 63 58 53 51
14 17 20 21 22 24 25 25 25 23 22 22 22 22 22 23 23 22 21 20 20 22 24 25 30 34 32 29 28 27 25 25 28 29 29 30 30 30 31 34 35 34 32 32 35 37 37 35 34 34 35 38 41 42 41 41 40 40 40 41 40 41 42 43 43 43 45 48 51 53 55 57 62 66 69 70 70 68 65 61 56 52 49 45 41 39 39
16 20 23 25 26 27 27 27 26 24 23 23 23 23 24 25 25 25 23 22 22 23 26 29 32 34 33 31 29 28 26 27 29 30 30 31 30 30 32 34 34 34 34 36 39 40 37 34 33 34 36 39 41 42 42 43 43 44 44 44 44 46 49 52 52 52 53 54 55 57 59 62 64 65 65 63 60 57 52 47 42 40 39 39 38 37 38
20 26 28 29 29 29 28 27 26 24 23 24 25 26 26 27 26 24 23 24 25 26 27 30 34 37 37 35 33 31 29 30 31 31 32 32 32 31 33 36 37 35 35 37 40 40 38 35 34 35 37 40 42 42 44 46 47 47 48 47 48 50 52 53 54 56 57 58 59 60 60 60 59 57 54 51 48 45 43 43 43 44 44 43 42 42 44
27 31 31 31 30 30 29 28 27 25 25 26 28 28 27 26 25 25 26 27 28 29 29 31 36 39 40 39 36 32 31 33 34 34 33 34 33 32 33 36 37 36 35 33 33 34 36 38 39 41 42 43 42 43 44 45 46 47 49 50 51 53 54 55 57 59 61 61 62 60 58 56 53 48 45 44 44 45 46 47 48 48 48 48 48 50 52
32 33 32 32 31 30 29 28 27 26 27 29 29 28 28 27 26 27 29 30 30 31 32 35 38 40 40 39 37 34 33 36 37 37 36 37 36 34 36 38 38 38 37 33 30 31 32 35 40 43 43 42 42 42 42 42 43 44 46 49 52 53 55 57 59 61 62 61 57 53 50 47 45 44 44 46 48 47 47 47 47 47 48 49 52 55 59
35 34 33 33 32 31 30 29 28 29 31 32 30 28 26 27 29 31 32 35 38 37 35 36 38 39 38 39 40 39 37 37 38 39 40 40 38 38 40 41 39 38 37 35 33 33 34 36 40 41 39 39 42 42 40 40 41 42 43 47 50 53 55 58 59 58 54 47 42 39 39 40 41 43 46 48 50 51 51 52 53 53 53 55 58 62 65
36 35 34 34 33 32 31 31 31 32 32 30 30 31 29 29 31 34 34 36 41 42 39 37 39 40 38 39 41 41 39 37 38 41 44 44 42 42 42 41 39 40 40 38 36 36 38 40 41 40 40 42 44 42 40 41 43 43 44 47 49 51 52 51 47 41 36 33 34 37 40 42 44 46 48 51 53 55 58 61 63 63 63 64 64 64 62
36 35 35 35 34 33 33 33 33 33 32 31 32 34 35 33 32 35 36 37 41 43 41 39 41 41 39 38 39 39 39 39 41 44 46 46 44 44 44 44 45 46 44 38 36 38 41 43 42 40 41 44 45 43 44 45 46 46 47 46 45 43 39 35 31 30 31 35 40 44 46 48 49 50 51 52 54 57 60 63 64 63 62 61 61 60 59
37 37 37 36 35 34 34 34 32 33 37 36 32 32 35 35 34 38 41 42 43 45 44 42 41 40 38 37 38 39 41 43 45 46 47 46 45 47 48 48 48 46 42 38 40 42 43 42 42 42 43 44 44 44 46 47 45 43 41 36 32 30 29 29 32 34 36 39 43 47 49 51 51 51 52 54 55 58 59 59 59 60 63 67 70 72 74
38 38 38 37 37 36 35 34 33 33 37 39 36 33 35 36 36 40 44 43 43 45 45 42 42 44 43 41 41 42 44 46 48 48 46 45 46 50 52 50 46 43 39 38 41 41 38 38 40 42 42 43 42 41 42 41 37 34 31 29 29 30 32 33 35 36 39 41 45 47 49 51 53 54 56 57 59 61 62 63 66 72 78 82 85 86 85
39 40 38 38 39 37 35 35 34 33 35 40 41 40 39 39 40 44 46 44 43 44 42 40 43 48 48 44 43 45 47 48 47 47 45 46 48 50 50 47 46 46 44 43 44 43 39 37 40 42 41 41 40 38 35 33 31 30 31 32 32 33 33 33 34 36 39 41 43 45 48 52 55 56 57 59 63 69 74 78 81 86 89 90 90 89 87
41 42 40 39 41 40 38 38 38 37 38 43 45 43 42 42 43 44 44 42 41 41 41 41 45 49 49 46 45 46 47 48 47 46 47 51 54 51 46 43 45 49 50 50 50 46 41 39 41 43 40 38 35 33 31 30 32 33 33 33 32 31 31 32 33 36 38 40 43 47 51 53 55 58 63 69 75 80 84 86 87 90 92 91 89 88 88
42 43 42 41 42 42 40 41 41 41 41 44 45 43 43 43 42 41 41 41 40 41 42 44 46 48 48 48 48 47 46 48 49 48 47 50 53 50 46 45 47 49 51 52 49 45 42 42 42 39 36 33 32 32 33 33 32 31 30 31 32 33 34 36 39 42 45 49 52 54 56 58 63 70 78 84 85 84 84 85 87 90 92 92 89 88 89
45 45 43 42 42 42 41 43 43 42 42 43 43 42 42 41 40 40 40 41 42 43 45 46 48 49 49 50 50 48 46 48 50 49 49 51 53 51 50 50 49 47 47 49 47 43 40 40 38 36 35 34 33 32 31 30 28 28 33 38 40 40 40 43 47 50 53 58 62 63 65 70 77 84 89 90 88 85 84 86 89 91 92 93 93 92 91
47 47 45 43 44 45 45 44 42 41 41 41 40 40 40 40 40 41 42 43 45 46 46 47 49 51 51 51 52 51 50 50 51 50 50 53 54 52 52 53 50 46 44 44 43 39 36 35 35 35 33 31 29 28 28 28 30 34 40 44 43 42 44 49 55 58 62 68 73 75 78 83 89 92 92 92 90 88 86 87 90 92 93 94 96 97 96
48 48 46 44 45 47 46 43 42 42 42 41 40 41 41 41 42 43 46 47 48 48 47 48 51 53 53 53 53 51 50 51 53 52 50 50 51 51 51 50 47 43 40 38 36 34 33 33 33 32 29 27 28 29 31 33 37 41 44 44 42 42 48 58 65 69 72 76 79 82 85 89 92 94 93 92 92 91 89 88 91 94 95 96 97 98 99
50 48 47 46 46 45 44 43 42 43 43 42 42 43 44 43 45 47 49 50 50 49 49 50 52 54 54 54 52 49 47 48 51 51 48 47 49 53 53 47 40 37 35 34 32 31 31 30 30 29 28 29 31 32 35 39 43 46 46 46 46 52 61 69 74 76 77 78 81 85 88 90 91 93 93 91 90 90 89 88 90 92 94 96 97 98 99
49 47 46 46 46 45 44 44 44 44 44 45 45 46 46 46 48 50 51 50 50 50 49 51 54 55 54 52 50 50 49 50 50 49 45 43 45 48 47 41 35 33 34 33 31 29 28 28 29 29 30 31 32 34 36 40 44 48 50 52 55 62 70 75 77 77 78 80 82 85 86 87 89 91 91 88 87 88 89 88 88 89 91 94 98 99 99